sat.trackr.live / text

‹ back to catalog

STARLINK-3109

NORAD 49143 · 2021-082P

PAYLOAD ACTIVE UNKNOWN

§ Identity

Operator
Country
US
Launch date
2021-09-14
Launch site
AFWTR
Launch vehicle
Mass (kg)
RCS (m²)

Purposes: comms

External: N2YO · Heavens-Above · Gunter

§ Orbital elements

Epoch: 2026-09-20T02:52:14.043936Z

Period
96.16 min
Inclination
69.9992°
Eccentricity
0.0002864
Mean motion
14.97526578 rev/d
Perigee alt
572.6 km
Apogee alt
576.5 km
Semi-major
6,952.7 km
B*
-3.6473e-4
RAAN
145.6357°
Arg perigee
271.2053°
Mean anomaly
88.8777°
Rev number
27,667

§ Raw data

STARLINK-31091 49143U 21082P   26263.11960699 -.00004352  00000+0 -36473-3 0  99952 49143  69.9992 145.6357 0002864 271.2053  88.8777 14.97526578276675

JSON: /api/v1/satellites/49143 · /tle

For live sub-satellite position, see the globe view (requires WebGL).

§ Visibility from observer

Set your observer location to see the next 7 days of passes ≥ 10°. The values pass through the URL so the page stays shareable.

No JS? Fill the form by hand. The geolocation button needs JavaScript.